Regional Weather Roundup
Issued by NWS Charleston, SC

Current Version | Previous Version | Graphics & Text | Print | Product List | Glossary On
Versions: 1 2 3 4 5 6 7 8 9 10 11 12 13 14 15 16 17 18 19 20 21 22 23 24 25 26 27 28 29 30 31 32 33 34 35 36 37 38 39 40 41 42 43 44 45 46 47 48 49 50
000
ASUS42 KCHS 181510
RWRCHS

REGIONAL WEATHER ROUNDUP
NATIONAL WEATHER SERVICE CHARLESTON SC
1100 AM EDT THU SEP 18 2014

NOTE: "FAIR" INDICATES FEW OR NO CLOUDS BELOW 12,000 FEET WITH NO
SIGNIFICANT WEATHER AND/OR OBSTRUCTIONS TO VISIBILITY.

NOT ALL STATIONS ARE QUALITY CONTROLLED BY THE NATIONAL
WEATHER SERVICE. USE DATA WITH CAUTION...ESPECIALLY
DEWPOINT OBSERVATIONS.

SCZ027-030-031-034>040-042>050-181600-
...SOUTH CAROLINA...

CITY           SKY/WX    TMP DP  RH WIND       PRES   REMARKS
N CHARLESTON   MOSUNNY   82  70  66 CALM      29.97R
WATERFRONT PRK   N/A     79 N/A N/A N3          N/A
FORT JOHNSON   NOT AVBL
MOUNT PLEASANT FAIR      81  72  74 CALM      29.96S
JOHNS ISLAND   SUNNY     81  81 100 CALM      29.96S HX  91
PINOPOLIS        N/A     79  70  73 N5        29.90R
MONCKS CORNER    N/A     79  73  83 N5        29.97R
SUMMERVILLE    FAIR      79  72  78 CALM      29.98R
BEAUFORT MCAS  PTSUNNY   81  71  71 W6        29.96R
BEAUFORT ARPT  FAIR      79  72  78 NE3       29.96R
HILTON HEAD IS MOSUNNY   81  73  78 CALM      29.97R
GEORGETOWN     NOT AVBL
WALTERBORO     MOSUNNY   81  70  69 CALM      29.98S
ORANGEBURG     CLOUDY    76  69  79 NE7       29.99S
BARNWELL       CLOUDY    73  70  88 NE5       30.00R
AIKEN          FAIR      77  72  83 NE5       30.03S
MANNING        CLOUDY    72 N/A N/A N5        29.99R
KINGSTREE      NOT AVBL
COLUMBIA       CLOUDY    70  66  87 N5        30.01R FOG
SUMTER         CLOUDY    72  68  88 NE6       29.99R
FLORENCE       PTSUNNY   74  67  78 NE3       30.00R
MYRTLE BEACH   PTSUNNY   81  68  65 NE6       29.97R
N MYRTLE BEACH SUNNY     80  69  69 NE5       29.97R

$$

GAZ063-065-086>088-099>101-113>116-118-119-134-136>141-150-181600-
...GEORGIA...

CITY           SKY/WX    TMP DP  RH WIND       PRES   REMARKS
SAVANNAH ARPT  PTSUNNY   81  71  71 SE5       29.96R
HUNTER AAF     MOSUNNY   82  74  75 VRB1      29.94R
FORT STEWART   MOSUNNY   76  73  89 N2        29.95S
STATESBORO     NOT AVBL
SYLVANIA       CLOUDY    78  74  88 NE5       29.99R
CLAXTON        PTSUNNY   79  77  94 CALM      29.97R
THOMSON        CLOUDY    75  73  91 CALM      30.05R
AUGUSTA-BUSH   CLOUDY    72  69  90 CALM      29.99R FOG
AUGUSTA-DANIEL CLOUDY    73  68  84 CALM      30.01R
SWAINSBORO     CLOUDY    77  77 100 NE5       30.00R
VIDALIA        CLOUDY    72  72 100 N6        29.99R
ALMA           MOSUNNY   82  71  69 VRB3      29.96R
WAYCROSS       MOSUNNY   86  76  71 CALM      29.95R HX  95
JESUP          FAIR      82  75  78 CALM      29.95S
BRUNSWICK      SUNNY     82  72  69 CALM      29.95S
SAINT SIMONS   SUNNY     83  71  67 CALM      29.94R

$$

SCZ027-028-034-036>038-045-046-048>050-GAZ119-141-181600-
...LAKE AND SUPPLEMENTAL COASTAL OBSERVATIONS...

STATION/POSITION TIME  TEMP    WIND        PRES    WAVE   SWELL
                       AIR SEA DIR/SP/G            HT/PER HT/PER/DIR
                 (UTC) (F)     (DEG/KT/KT) (MB)    (FT/S) (FT/S/D)
UPR LAKE MARION  NOT AVBL
WINYAH BAY       1400   77      40/  1     1014.0S
LAKE MURRAY      1400   67      CALM  /  3 1015.6R
ACE BASIN NERRS  1400   76      40/  1     1014.0S
FORT PULASKI     1500   79      40/  5/  7 1014.6R
SAPELO ISLAND    1400   80     240/  2     1014.0S

$$

ANZ835-935-AMZ111-154-330-350-352-354-374-450-454-472-181600-
...C-MAN AND BUOY OBSERVATIONS...

STATION/POSITION TIME  TEMP    WIND        PRES    WAVE   SWELL
                       AIR SEA DIR/SP/G            HT/PER HT/PER/DIR
                 (UTC) (F)     (DEG/KT/KT) (MB)    (FT/S) (FT/S/D)
FOLLY BEACH CMAN 1500   78      40/  5/  6 1015.0R
BUOY 41004       1500   80 83  360/  4/  6 1014.1R   3/10   3/10
BUOY 41008       1500   81 84  100/  4/  6 1014.2R   3/12   3/100/12
5E ST. MARYS GA  1500      84                N/A     3/13   2/100/13
FRYING PAN BUOY  NOT AVBL
BUOY 41025       1500   75      10/ 17/ 21 1014.6R   6/13   3/ 80/13
CAPE LOOKOUT NC  1500   75      40/ 17/ 19 1015.1R
BUOY 41002       1418   78 82  360/  8/ 10 1014.1R   4/11   3/ 70/11
BUOY 41010       1500   81 85   30/  6/ 10 1013.6S   5/14   5/ 60/14
BUOY 41012       NOT AVBL
ST AUGUSTINE FL  1500   80      10/  8/  8 1015.0R
CAPERS NEARSHORE 1400   79      30/  8/  8   N/A
FRIPP NEARSHORE  NOT AVBL


$$


USA.gov is the U.S. government's official web portal to all federal, state and local government web resources and services.